Overview Statistics Trail Chart Weather Telemetry Raw packets
 

This is the latest recevied weather packets stored in our database for station/object 4S6DRJ-13. If no packets are shown the sender has not sent any weather packets the latest 10 day(s).

<< 116 117 118 119 120 121 122 >>
Time Temp. Humidity Pressure Rain* Wind** Luminosity Snow
1788283093 28.33° C 83% 1011.7 hPa 0 mm 0.45 m/s, 215° 0 W/m² -
1788283032 28.33° C 83% 1011.8 hPa 0 mm 1.79 m/s, 204° 0 W/m² -
1788282971 28.33° C 83% 1011.8 hPa 0 mm 0 m/s 0 W/m² -
1788282910 28.33° C 83% 1011.6 hPa 0 mm 1.34 m/s, 264° 0 W/m² -
1788282849 28.33° C 83% 1011.7 hPa 0 mm 0.89 m/s, 256° 0 W/m² -
1788282788 28.33° C 83% 1011.8 hPa 0 mm 0 m/s 0 W/m² -
1788282727 28.33° C 83% 1011.7 hPa 0 mm 0 m/s 0 W/m² -
1788282666 28.33° C 83% 1011.9 hPa 0 mm 0 m/s 0 W/m² -
1788282605 28.33° C 83% 1011.6 hPa 0 mm 0.45 m/s, 159° 0 W/m² -
1788282544 28.33° C 83% 1011.9 hPa 0 mm 0 m/s 0 W/m² -
1788282484 28.33° C 83% 1011.9 hPa 0 mm 0.89 m/s, 237° 0 W/m² -
1788282422 28.33° C 83% 1011.7 hPa 0 mm 0.45 m/s, 215° 0 W/m² -
1788282361 28.33° C 83% 1011.6 hPa 0 mm 0 m/s 0 W/m² -
1788282300 28.33° C 83% 1011.6 hPa 0 mm 0.89 m/s, 309° 0 W/m² -
1788282239 28.33° C 83% 1011.5 hPa 0 mm 0.45 m/s, 225° 0 W/m² -
1788282182 28.33° C 83% 1011.6 hPa 0 mm 1.34 m/s, 148° 0 W/m² -
1788282117 28.33° C 83% 1011.6 hPa 0 mm 1.34 m/s, 239° 0 W/m² -
1788282056 28.33° C 82% 1011.7 hPa 0 mm 0.89 m/s, 234° 0 W/m² -
1788281995 28.33° C 82% 1011.6 hPa 0 mm 0.89 m/s, 206° 0 W/m² -
1788281934 28.33° C 82% 1011.6 hPa 0 mm 0.89 m/s, 214° 0 W/m² -
1788281873 28.33° C 82% 1011.7 hPa 0 mm 0.89 m/s, 215° 0 W/m² -
1788281812 28.33° C 82% 1011.8 hPa 0 mm 0.45 m/s, 242° 0 W/m² -
1788281751 28.33° C 82% 1011.6 hPa 0 mm 0.89 m/s, 218° 0 W/m² -
1788281690 28.33° C 82% 1011.6 hPa 0 mm 0.45 m/s, 238° 0 W/m² -
1788281629 28.33° C 82% 1011.6 hPa 0 mm 0.89 m/s, 338° 0 W/m² -

* Rain latest hour (hover to see other rain measurements)
** Current wind speed in m/s (hover to see current wind gust speed)